Madison, MN

8:06 AM CST on December 07, 2019 (GMT -0600)
Madison-Lac Qui Parle County

Weather History for KDXX - November, 2019

Change the Weather History Date:

Monday, November 18, 2019

  Actual Average (WUND) Record (WUND)
Temperature  
Mean Temperature 42 °F -  
Max Temperature 50 °F - - (-1)
Min Temperature 33 °F - - (-1)
Degree Days  
Heating Degree Days 24    
Moisture  
Dew Point 37 °F    
Average Humidity 88    
Maximum Humidity 100    
Minimum Humidity 62    
Precipitation  
Precipitation 0.06 in - - ()
Sea Level Pressure  
Sea Level Pressure 29.67 in    
Wind  
Wind Speed 7 mph (South)    
Max Wind Speed 10 mph    
Max Gust Speed -    
Visibility 9 miles    
Events Rain    
Averages and records for this station are not official NWS values.
T = Trace of Precipitation, MM = Missing Value Source: NWS Daily Summary

Daily Weather History Graph

Daily Weather History Graph

Search for Another Location

Airport or City:

Astronomy

Nov. 18, 2019 Rise Set
Actual Time 7:26 AM CST 4:53 PM CST
Civil Twilight 6:54 AM CST 5:25 PM CST
Nautical Twilight 6:18 AM CST 6:00 PM CST
Astronomical Twilight 5:43 AM CST 6:35 PM CST
Moon 10:38 PM CST (11/18) 12:59 PM CST (11/18)
Length of Visible Light 10h 31m
Length of Day
9h 26m
Waning Gibbous, 63% of the Moon is Illuminated
Nov 18
Waning Gibbous
Nov 19
Last Quarter
Nov 26
New
Dec 4
First Quarter
Dec 11
Full

Hourly Weather History & Observations

Time (CST) Temp. Windchill Dew Point Humidity Pressure Visibility Wind Dir Wind Speed Gust Speed Precip Events Conditions
12:15 AM 33.8 °F 27.7 °F 32.0 °F 93% 29.77 in 10.0 mi SE 6.9 mph - N/A   Clear
12:19 AM 33.8 °F 27.0 °F 32.0 °F 93% 29.77 in 10.0 mi SE 8.1 mph - N/A   Clear
12:38 AM 33.8 °F 27.0 °F 32.0 °F 93% 29.76 in 10.0 mi SSE 8.1 mph - N/A   Clear
12:55 AM 33.8 °F 28.6 °F 32.0 °F 93% 29.77 in 10.0 mi SSE 5.8 mph - N/A   Mostly Cloudy
1:35 AM 33.8 °F 27.0 °F 33.8 °F 100% 29.75 in 10.0 mi SSE 8.1 mph - N/A   Overcast
1:58 AM 35.6 °F 28.6 °F 33.8 °F 93% 29.75 in 10.0 mi SSE 9.2 mph - N/A   Overcast
2:17 AM 35.6 °F 29.9 °F 33.8 °F 93% 29.75 in 10.0 mi SSE 6.9 mph - N/A   Overcast
2:36 AM 35.6 °F 28.0 °F 33.8 °F 93% 29.74 in 10.0 mi SSE 10.4 mph - N/A   Overcast
2:55 AM 35.6 °F 28.0 °F 33.8 °F 93% 29.74 in 10.0 mi SSE 10.4 mph - N/A   Overcast
2:56 AM 35.6 °F 28.0 °F 33.8 °F 93% 29.74 in 10.0 mi SSE 10.4 mph - N/A   Overcast
3:15 AM 35.6 °F 28.6 °F 33.8 °F 93% 29.73 in 7.0 mi SSE 9.2 mph - N/A   Overcast
3:37 AM 35.6 °F 29.2 °F 33.8 °F 93% 29.73 in 7.0 mi SSE 8.1 mph - N/A   Overcast
3:55 AM 35.6 °F 28.6 °F 33.8 °F 93% 29.71 in 7.0 mi SSE 9.2 mph - N/A   Overcast
4:15 AM 35.6 °F 28.6 °F 33.8 °F 93% 29.70 in 7.0 mi SE 9.2 mph - N/A   Mostly Cloudy
4:16 AM 35.6 °F 28.6 °F 33.8 °F 93% 29.70 in 7.0 mi SE 9.2 mph - N/A   Mostly Cloudy
4:35 AM 35.6 °F 28.6 °F 33.8 °F 93% 29.70 in 7.0 mi SE 9.2 mph - N/A   Mostly Cloudy
4:36 AM 35.6 °F 28.6 °F 33.8 °F 93% 29.70 in 7.0 mi SE 9.2 mph - N/A   Mostly Cloudy
5:16 AM 35.6 °F 28.6 °F 33.8 °F 93% 29.68 in 7.0 mi SE 9.2 mph - N/A   Mostly Cloudy
5:36 AM 35.6 °F 28.6 °F 33.8 °F 93% 29.67 in 7.0 mi SE 9.2 mph - N/A   Mostly Cloudy
5:55 AM 35.6 °F 28.0 °F 33.8 °F 93% 29.66 in 7.0 mi SE 10.4 mph - N/A   Overcast
6:15 AM 35.6 °F 28.6 °F 33.8 °F 93% 29.65 in 7.0 mi SE 9.2 mph - N/A   Overcast
6:19 AM 35.6 °F 28.6 °F 33.8 °F 93% 29.65 in 7.0 mi SE 9.2 mph - N/A   Overcast
6:37 AM 35.6 °F 28.6 °F 33.8 °F 93% 29.65 in 10.0 mi SE 9.2 mph - N/A   Mostly Cloudy
6:56 AM 35.6 °F 29.2 °F 33.8 °F 93% 29.65 in 10.0 mi SSE 8.1 mph - N/A   Mostly Cloudy
7:15 AM 35.6 °F 28.6 °F 33.8 °F 93% 29.65 in 10.0 mi SSE 9.2 mph - N/A   Scattered Clouds
7:16 AM 35.6 °F 28.6 °F 33.8 °F 93% 29.65 in 10.0 mi SSE 9.2 mph - N/A   Scattered Clouds
7:35 AM 35.6 °F 28.6 °F 33.8 °F 93% 29.66 in 10.0 mi SSE 9.2 mph - N/A   Mostly Cloudy
7:36 AM 35.6 °F 28.6 °F 33.8 °F 93% 29.66 in 10.0 mi SSE 9.2 mph - N/A   Mostly Cloudy
7:58 AM 35.6 °F 29.9 °F 33.8 °F 93% 29.66 in 7.0 mi SSE 6.9 mph - N/A   Overcast
8:16 AM 35.6 °F 29.2 °F 33.8 °F 93% 29.66 in 7.0 mi SSE 8.1 mph - N/A   Overcast
8:35 AM 35.6 °F 29.2 °F 33.8 °F 93% 29.65 in 7.0 mi SSE 8.1 mph - N/A   Scattered Clouds
8:55 AM 37.4 °F 30.8 °F 35.6 °F 93% 29.65 in 10.0 mi SE 9.2 mph - N/A   Scattered Clouds
8:56 AM 37.4 °F 30.8 °F 35.6 °F 93% 29.65 in 10.0 mi SE 9.2 mph - N/A   Scattered Clouds
9:15 AM 37.4 °F 30.8 °F 35.6 °F 93% 29.64 in 10.0 mi SSE 9.2 mph - N/A   Overcast
9:19 AM 37.4 °F 30.8 °F 35.6 °F 93% 29.64 in 10.0 mi SE 9.2 mph - N/A   Overcast
9:38 AM 39.2 °F 33.6 °F 35.6 °F 87% 29.63 in 10.0 mi SSE 8.1 mph - N/A   Scattered Clouds
9:55 AM 41.0 °F 35.2 °F 35.6 °F 81% 29.62 in 10.0 mi SSE 9.2 mph - N/A   Clear
10:15 AM 42.8 °F 37.5 °F 37.4 °F 81% 29.62 in 10.0 mi SSE 9.2 mph - N/A   Clear
10:16 AM 42.8 °F 37.5 °F 37.4 °F 81% 29.62 in 10.0 mi SSE 9.2 mph - N/A   Clear
10:35 AM 42.8 °F 37.5 °F 37.4 °F 81% 29.62 in 10.0 mi SSE 9.2 mph - N/A   Scattered Clouds
10:58 AM 44.6 °F 40.7 °F 37.4 °F 76% 29.61 in 10.0 mi SSE 6.9 mph - N/A   Scattered Clouds
11:16 AM 44.6 °F 41.4 °F 37.4 °F 76% 29.61 in 10.0 mi South 5.8 mph - N/A   Clear
11:41 AM 46.4 °F 42.4 °F 37.4 °F 71% 29.59 in 10.0 mi South 8.1 mph - N/A   Clear
11:57 AM 46.4 °F 44.3 °F 37.4 °F 71% 29.59 in 10.0 mi South 4.6 mph - N/A   Clear
12:16 PM 48.2 °F - 39.2 °F 71% 29.59 in 10.0 mi SSW 4.6 mph - N/A   Scattered Clouds
12:35 PM 48.2 °F - 37.4 °F 66% 29.59 in 10.0 mi Calm Calm - N/A   Mostly Cloudy
12:55 PM 48.2 °F - 37.4 °F 66% 29.59 in 10.0 mi Calm Calm - N/A   Scattered Clouds
12:59 PM 48.2 °F - 37.4 °F 66% 29.59 in 10.0 mi Calm Calm - N/A   Scattered Clouds
1:16 PM 48.2 °F - 37.4 °F 66% 29.59 in 10.0 mi Calm Calm - N/A   Scattered Clouds
1:35 PM 48.2 °F - 37.4 °F 66% 29.59 in 10.0 mi Calm Calm - N/A   Scattered Clouds
1:36 PM 48.2 °F - 37.4 °F 66% 29.59 in 10.0 mi Calm Calm - N/A   Scattered Clouds
1:55 PM 50.0 °F - 37.4 °F 62% 29.59 in 10.0 mi Calm Calm - N/A   Clear
1:56 PM 50.0 °F - 37.4 °F 62% 29.59 in 10.0 mi Calm Calm - N/A   Clear
2:15 PM 50.0 °F - 37.4 °F 62% 29.60 in 10.0 mi North 3.5 mph - N/A   Scattered Clouds
2:20 PM 50.0 °F - 39.2 °F 66% 29.60 in 10.0 mi NE 3.5 mph - N/A   Scattered Clouds
2:37 PM 48.2 °F - 39.2 °F 71% 29.60 in 10.0 mi North 4.6 mph - N/A   Light Drizzle
2:55 PM 48.2 °F - 39.2 °F 71% 29.61 in 10.0 mi North 5.8 mph - N/A   Light Drizzle
3:15 PM 48.2 °F - 41.0 °F 76% 29.62 in 10.0 mi North 4.6 mph - N/A Rain Light Rain
3:16 PM 48.2 °F - 41.0 °F 76% 29.62 in 10.0 mi North 4.6 mph - N/A Rain Light Rain
3:35 PM 46.4 °F - 42.8 °F 87% 29.63 in 10.0 mi Calm Calm - N/A Rain Light Rain
3:36 PM 46.4 °F - 42.8 °F 87% 29.63 in 10.0 mi Calm Calm - 0.02 in Rain Light Rain
3:58 PM 44.6 °F 43.1 °F 42.8 °F 93% 29.63 in 10.0 mi NNW 3.5 mph - N/A Rain Rain
4:17 PM 44.6 °F 43.1 °F 42.8 °F 93% 29.63 in 10.0 mi NNW 3.5 mph - 0.04 in Rain Rain
4:36 PM 44.6 °F - 42.8 °F 93% 29.64 in 7.0 mi Calm Calm - 0.01 in Rain Light Rain
4:55 PM 42.8 °F - 42.8 °F 100% 29.65 in 10.0 mi Calm Calm - N/A Rain Light Rain
4:56 PM 42.8 °F - 42.8 °F 100% 29.65 in 10.0 mi Calm Calm - N/A Rain Light Rain
5:15 PM 42.8 °F - 42.8 °F 100% 29.66 in 7.0 mi Calm Calm - N/A   Mostly Cloudy
5:37 PM 42.8 °F - 41.0 °F 93% 29.66 in 7.0 mi Calm Calm - N/A Rain Light Rain
5:56 PM 42.8 °F 40.1 °F 41.0 °F 93% 29.67 in 7.0 mi WNW 4.6 mph - N/A   Mostly Cloudy
6:15 PM 42.8 °F 41.1 °F 41.0 °F 93% 29.68 in 7.0 mi WNW 3.5 mph - N/A   Overcast
6:16 PM 42.8 °F 40.1 °F 41.0 °F 93% 29.68 in 7.0 mi WNW 4.6 mph - N/A   Overcast
6:35 PM 42.8 °F 39.3 °F 41.0 °F 93% 29.68 in 7.0 mi West 5.8 mph - N/A   Overcast
6:36 PM 42.8 °F 39.3 °F 41.0 °F 93% 29.68 in 7.0 mi West 5.8 mph - N/A   Overcast
6:59 PM 42.8 °F 39.3 °F 41.0 °F 93% 29.69 in 7.0 mi West 5.8 mph - N/A   Mostly Cloudy
7:16 PM 42.8 °F 40.1 °F 41.0 °F 93% 29.69 in 10.0 mi West 4.6 mph - N/A   Mostly Cloudy
7:35 PM 42.8 °F 39.3 °F 41.0 °F 93% 29.70 in 10.0 mi West 5.8 mph - N/A Rain Rain
7:55 PM 42.8 °F 38.6 °F 41.0 °F 93% 29.70 in 10.0 mi West 6.9 mph - N/A   Mostly Cloudy
7:56 PM 42.8 °F 38.6 °F 41.0 °F 93% 29.70 in 10.0 mi West 6.9 mph - N/A   Mostly Cloudy
8:15 PM 42.8 °F 39.3 °F 41.0 °F 93% 29.70 in 7.0 mi West 5.8 mph - N/A   Scattered Clouds
8:19 PM 42.8 °F 39.3 °F 41.0 °F 93% 29.69 in 7.0 mi West 5.8 mph - N/A   Clear
8:38 PM 41.0 °F 36.4 °F 39.2 °F 93% 29.70 in 7.0 mi West 6.9 mph - N/A   Clear
8:55 PM 39.2 °F 34.2 °F 39.2 °F 100% 29.70 in 10.0 mi West 6.9 mph - N/A   Scattered Clouds
9:15 PM 39.2 °F 34.2 °F 39.2 °F 100% 29.70 in 10.0 mi West 6.9 mph - N/A   Scattered Clouds
9:16 PM 39.2 °F 34.2 °F 39.2 °F 100% 29.70 in 10.0 mi West 6.9 mph - N/A   Scattered Clouds
9:35 PM 39.2 °F 34.2 °F 37.4 °F 93% 29.70 in 10.0 mi West 6.9 mph - N/A   Clear
9:58 PM 37.4 °F 32.1 °F 37.4 °F 100% 29.69 in 10.0 mi West 6.9 mph - N/A   Clear
10:17 PM 37.4 °F 33.8 °F 37.4 °F 100% 29.69 in 10.0 mi West 4.6 mph - N/A   Clear
10:36 PM 39.2 °F 34.2 °F 37.4 °F 93% 29.69 in 10.0 mi West 6.9 mph - N/A   Mostly Cloudy
10:55 PM 39.2 °F 33.6 °F 37.4 °F 93% 29.69 in 10.0 mi West 8.1 mph - N/A   Mostly Cloudy
10:56 PM 39.2 °F 33.6 °F 37.4 °F 93% 29.69 in 10.0 mi West 8.1 mph - N/A   Mostly Cloudy
11:15 PM 39.2 °F 34.2 °F 37.4 °F 93% 29.69 in 10.0 mi West 6.9 mph - N/A   Clear
11:20 PM 39.2 °F 34.2 °F 37.4 °F 93% 29.69 in 10.0 mi West 6.9 mph - N/A   Clear
11:37 PM 37.4 °F 30.8 °F 37.4 °F 100% 29.69 in 10.0 mi West 9.2 mph - N/A   Clear
11:55 PM 37.4 °F 31.4 °F 37.4 °F 100% 29.69 in 10.0 mi West 8.1 mph - N/A   Clear